Tracking 31027 objects as of 19-Jul-2025
HD Live streaming from Space Station
objects crossing your sky now

STARLINK-5550

Track STARLINK-5550 now!
10-day predictions
STARLINK-5550 is classified as:


NORAD ID: 56361
Int'l Code: 2023-058AW
Perigee: 567.9 km
Apogee: 572.3 km
Inclination: 97.7 °
Period: 95.9 minutes
Semi major axis: 6941 km
RCS: Unknown
Launch date: April 27, 2023
Source: United States (US)
Launch site: AIR FORCE WESTERN TEST RANGE (AFWTR)
Your satellite tracking list
GALASSIA
Track 1 satellite(s)




NASA's NSSDC Master Catalog

Two Line Element Set (TLE):
1 56361U 23058AW  25199.93274981  .00000173  00000-0  18105-4 0  9998
2 56361  97.6543 201.1732 0003170  48.1771 311.9724 15.01260770123060
Source of the keplerian elements: AFSPC